Location: Turtle Rock Observatory
(36.6913°N, 81.9708°W)
Time: 22:27:15
(UTC-04:00)

Lacrosse 5 rocket - Visible Passes

Search period start: 30 April 2017 00:00
Search period end: 10 May 2017 00:00
Orbit: 461 x 642 km, 57.0° (Epoch: 25 March)

Date Brightness Start Highest point End Pass type
(mag) Time Alt. Az. Time Alt. Az. Time Alt. Az.
30 Apr 3.9 02:47:41 21° NE 02:47:41 21° NE 02:49:17 10° NE visible
30 Apr 3.6 04:23:22 17° NW 04:24:24 18° NNW 04:27:37 10° N visible
01 May 3.9 02:42:58 22° NE 02:42:58 22° NE 02:44:40 10° NE visible
01 May 3.9 04:18:39 13° NW 04:20:00 15° NNW 04:22:38 10° N visible
02 May 3.9 02:38:12 22° NNE 02:38:12 22° NNE 02:39:59 10° NNE visible
02 May 4.1 04:13:53 10° NW 04:15:36 12° NNW 04:17:31 10° N visible
03 May 3.9 02:33:24 22° NNE 02:33:24 22° NNE 02:35:16 10° NNE visible
03 May 4.4 04:10:44 10° NNW 04:11:16 10° NNW 04:11:47 10° NNW visible
04 May 4.0 02:28:31 21° N 02:28:31 21° N 02:30:30 10° NNE visible
05 May 4.0 02:23:34 20° N 02:23:34 20° N 02:25:41 10° NNE visible
06 May 4.1 02:18:33 18° NNW 02:18:33 18° NNW 02:20:50 10° NNE visible
07 May 4.2 02:13:26 16° NNW 02:13:26 16° NNW 02:15:53 10° N visible
08 May 4.4 00:32:33 13° NE 00:32:33 13° NE 00:33:03 10° NE visible
08 May 4.4 02:08:11 13° NNW 02:08:33 13° NNW 02:10:51 10° N visible
09 May 4.1 00:27:07 17° NNE 00:27:07 17° NNE 00:28:21 10° NNE visible
09 May 4.6 02:02:48 10° NW 02:04:11 11° NNW 02:05:34 10° N visible
